CW7427 Weather Reports


time (UTC)temp
F
wind
direction
speed
knots
gust
knots
rain 1hr
in
rain 24hr
in
rain mn
in
humidity
%
barometer
mb
20260509090245 58 110 0.0 0.0 0.00 0.00 0.00 79 1023.4
20260509085738 58 110 0.0 0.0 0.00 0.00 0.00 78 1023.4
20260509085228 58 110 0.0 0.0 0.00 0.00 0.00 79 1023.3
20260509084704 58 110 0.0 0.0 0.00 0.00 0.00 78 1023.2
20260509084201 58 110 0.0 0.0 0.00 0.00 0.00 77 1023.2
20260509083658 59 110 0.0 0.0 0.00 0.00 0.00 77 1023.1
20260509083149 58 110 0.0 0.0 0.00 0.00 0.00 77 1023.0
20260509082638 59 110 0.0 0.0 0.00 0.00 0.00 76 1023.0
20260509082135 59 110 0.0 0.0 0.00 0.00 0.00 75 1022.9
20260509081632 60 110 0.0 0.0 0.00 0.00 0.00 74 1022.9
20260509081056 60 110 0.0 0.0 0.00 0.00 0.00 73 1022.8
20260509080546 60 110 0.0 0.0 0.00 0.00 0.00 73 1022.7
20260509080036 61 110 0.0 0.0 0.00 0.00 0.00 72 1022.7
20260509075538 61 110 0.0 0.0 0.00 0.00 0.00 71 1022.7
20260509075033 62 110 0.0 0.9 0.00 0.00 0.00 70 1022.6
20260509074529 62 110 0.0 0.9 0.00 0.00 0.00 70 1022.5
20260509074225 62 71 0.0 0.9 0.00 0.00 0.00 69 1022.4
20260509073729 62 71 0.0 0.0 0.00 0.00 0.00 68 1022.4
20260509072944 63 71 0.0 0.0 0.00 0.00 0.00 67 1022.3
20260509072703 63 71 0.0 0.9 0.00 0.00 0.00 66 1022.3
20260509071932 64 71 0.0 3.5 0.00 0.00 0.00 66 1022.3
20260509071422 64 71 0.9 4.3 0.00 0.00 0.00 65 1022.2
20260509070913 64 64 0.9 4.3 0.00 0.00 0.00 64 1022.2
20260509070406 64 64 0.0 3.5 0.00 0.00 0.00 64 1022.1
20260509065855 65 61 0.0 3.5 0.00 0.00 0.00 64 1022.1
20260509065345 65 61 0.0 3.5 0.00 0.00 0.00 63 1022.0
20260509064837 65 60 0.0 3.5 0.00 0.00 0.00 63 1021.9
20260509064332 65 59 0.0 3.5 0.00 0.00 0.00 63 1021.8
20260509063816 65 57 0.0 3.5 0.00 0.00 0.00 62 1021.9
20260509063520 65 57 0.0 3.5 0.00 0.00 0.00 61 1021.8
20260509063008 66 55 0.0 4.3 0.00 0.00 0.00 61 1021.7
20260509062233 66 104 0.0 4.3 0.00 0.00 0.00 60 1021.6
20260509061716 66 106 0.9 4.3 0.00 0.00 0.00 60 1021.6
20260509061212 66 113 0.9 4.3 0.00 0.00 0.00 59 1021.5
20260509060649 67 102 0.9 4.3 0.00 0.00 0.00 59 1021.5
20260509060139 67 100 0.9 5.2 0.00 0.00 0.00 59 1021.4
20260509055641 67 103 0.9 5.2 0.00 0.00 0.00 58 1021.4
20260509055136 67 105 0.9 6.1 0.00 0.00 0.00 58 1021.4
20260509054855 67 105 0.9 6.1 0.00 0.00 0.00 57 1021.4
20260509054349 67 79 0.9 5.2 0.00 0.00 0.00 57 1021.3
20260509053603 68 77 0.9 5.2 0.00 0.00 0.00 57 1021.3
20260509053106 68 86 0.0 4.3 0.00 0.00 0.00 56 1021.2
20260509052826 68 84 0.0 4.3 0.00 0.00 0.00 56 1021.1
20260509052104 68 72 0.0 4.3 0.00 0.00 0.00 56 1021.1
20260509051604 68 77 0.0 5.2 0.00 0.00 0.00 56 1021.1
20260509051053 68 77 0.9 5.2 0.00 0.00 0.00 55 1021.1
20260509050543 69 65 0.9 4.3 0.00 0.00 0.00 54 1021.0
20260509050042 69 135 0.0 4.3 0.00 0.00 0.00 54 1021.0
20260509045532 69 123 0.0 2.6 0.00 0.00 0.00 50 1021.1
20260509045021 69 40 0.0 0.0 0.00 0.00 0.00 47 1021.0
20260509044512 69 40 0.0 3.5 0.00 0.00 0.00 48 1021.0
20260509044229 69 40 0.0 3.5 0.00 0.00 0.00 48 1021.0
20260509043457 69 40 0.0 0.9 0.00 0.00 0.00 48 1021.0
20260509042946 69 40 0.0 2.6 0.00 0.00 0.00 49 1021.1
20260509042437 69 40 0.0 2.6 0.00 0.00 0.00 48 1021.0
20260509041929 69 40 0.0 1.7 0.00 0.00 0.00 49 1021.1
20260509041425 69 38 0.0 1.7 0.00 0.00 0.00 49 1021.1
20260509040917 69 38 0.0 5.2 0.00 0.00 0.00 48 1021.2
20260509040403 69 38 0.0 5.2 0.00 0.00 0.00 49 1021.2
20260509035854 69 38 0.0 0.0 0.00 0.00 0.00 48 1021.2
20260509035343 69 38 0.0 0.0 0.00 0.00 0.00 48 1021.2
20260509035106 69 38 0.0 2.6 0.00 0.00 0.00 48 1021.1
20260509034331 69 38 0.0 2.6 0.00 0.00 0.00 49 1021.1
20260509033821 70 38 0.0 0.9 0.00 0.00 0.00 48 1021.2
20260509033321 70 38 0.0 1.7 0.00 0.00 0.00 48 1021.1
20260509033025 70 38 0.0 1.7 0.00 0.00 0.00 48 1021.2
20260509032255 70 38 0.0 0.0 0.00 0.00 0.00 48 1021.3
20260509031751 70 38 0.0 0.0 0.00 0.00 0.00 48 1021.3
20260509031725 69 38 0.0 1.7 0.00 0.00 0.00 49 1021.4
20260509030733 69 38 0.0 1.7 0.00 0.00 0.00 49 1021.5
20260509030455 69 56 0.0 0.0 0.00 0.00 0.00 48 1021.5
20260509025950 69 56 0.0 0.0 0.00 0.00 0.00 49 1021.6
20260509025227 69 56 0.0 0.9 0.00 0.00 0.00 49 1021.7
20260509024715 69 56 0.0 0.9 0.00 0.00 0.00 49 1021.7
20260509024155 68 56 0.0 1.7 0.00 0.00 0.00 52 1021.9
20260509023910 68 56 0.0 1.7 0.00 0.00 0.00 51 1022.0
20260509023135 68 56 0.0 4.3 0.00 0.00 0.00 50 1022.1
20260509022629 68 56 0.0 4.3 0.00 0.00 0.00 51 1022.1
20260509022123 68 55 0.0 1.7 0.00 0.00 0.00 51 1022.2
20260509021613 68 55 0.0 0.9 0.00 0.00 0.00 53 1022.2
20260509021326 68 55 0.0 1.7 0.00 0.00 0.00 54 1022.2
20260509020553 67 55 0.0 4.3 0.00 0.00 0.00 53 1022.4
20260509020042 68 55 0.0 4.3 0.00 0.00 0.00 51 1022.5
20260509015533 68 53 0.0 4.3 0.00 0.00 0.00 53 1022.5
20260509015025 68 292 0.0 1.7 0.00 0.00 0.00 56 1022.6
20260509014517 68 292 0.0 1.7 0.00 0.00 0.00 54 1022.6
20260509014007 68 293 0.0 0.9 0.00 0.00 0.00 54 1022.7
20260509013457 67 294 0.0 0.9 0.00 0.00 0.00 57 1022.8
20260509012951 67 294 0.0 0.9 0.00 0.00 0.00 58 1022.7
20260509012705 67 294 0.0 1.7 0.00 0.00 0.00 57 1022.8
20260509011936 66 294 0.0 1.7 0.00 0.00 0.00 58 1022.8
20260509011435 67 289 0.0 0.0 0.00 0.00 0.00 58 1022.8
20260509010930 66 289 0.0 0.9 0.00 0.00 0.00 56 1022.9
20260509010428 66 289 0.0 1.7 0.00 0.00 0.00 58 1022.9
20260509010148 67 288 0.0 1.7 0.00 0.00 0.00 58 1022.9
20260509005409 66 288 0.0 0.9 0.00 0.00 0.00 60 1023.0
20260509005127 67 288 0.0 0.9 0.00 0.00 0.00 58 1023.0
20260509004349 67 288 0.0 3.5 0.00 0.00 0.00 59 1023.1
20260509003841 66 288 0.0 3.5 0.00 0.00 0.00 58 1023.1
20260509003556 65 309 0.0 1.7 0.00 0.00 0.00 60 1023.1
20260509002815 65 309 0.0 1.7 0.00 0.00 0.00 60 1023.2
20260509002744 65 308 0.0 1.7 0.00 0.00 0.00 59 1023.3
20260509001800 65 309 0.0 0.9 0.00 0.00 0.00 61 1023.2
20260509001248 65 309 0.0 3.5 0.00 0.00 0.00 61 1023.3
20260509000738 65 309 0.0 3.5 0.00 0.00 0.00 63 1023.3
20260509000229 65 305 0.0 1.7 0.00 0.00 0.00 62 1023.3
20260508235717 64 305 0.0 1.7 0.00 0.00 0.00 59 1023.4
20260508235211 65 5 0.0 0.9 0.00 0.00 0.00 63 1023.3
20260508234647 64 5 0.0 1.7 0.00 0.00 0.00 62 1023.4
20260508234134 64 5 0.0 0.9 0.00 0.00 0.00 62 1023.4
20260508233626 64 5 0.0 0.0 0.00 0.00 0.00 64 1023.3
20260508233121 62 5 0.0 0.0 0.00 0.00 0.00 66 1023.3
20260508232849 62 5 0.0 1.7 0.00 0.00 0.00 67 1023.3
20260508232117 62 5 0.0 1.7 0.00 0.00 0.00 65 1023.3
20260508231617 62 5 0.0 0.9 0.00 0.00 0.00 64 1023.3
20260508231332 62 5 0.0 0.9 0.00 0.00 0.00 67 1023.4
20260508230608 61 5 0.0 0.9 0.00 0.00 0.00 66 1023.4
20260508230318 61 5 0.0 0.9 0.00 0.00 0.00 68 1023.4
20260508225553 61 5 0.0 0.9 0.00 0.00 0.00 68 1023.3
20260508225039 60 5 0.0 1.7 0.00 0.00 0.00 70 1023.3
20260508224539 60 5 0.0 1.7 0.00 0.00 0.00 70 1023.3
20260508224027 59 5 0.0 0.0 0.00 0.00 0.00 72 1023.2
20260508223516 59 5 0.0 0.0 0.00 0.00 0.00 73 1023.1
20260508223228 59 5 0.0 0.0 0.00 0.00 0.00 73 1023.1
20260508222450 59 5 0.0 0.9 0.00 0.00 0.00 72 1023.1
20260508221930 59 5 0.0 0.0 0.00 0.00 0.00 72 1023.0
20260508221416 59 5 0.0 0.0 0.00 0.00 0.00 73 1023.0
20260508220911 57 5 0.0 0.0 0.00 0.00 0.00 76 1023.0
20260508220411 56 5 0.0 0.0 0.00 0.00 0.00 77 1023.0
20260508215841 55 5 0.0 0.0 0.00 0.00 0.00 79 1023.0
20260508215601 53 5 0.0 0.0 0.00 0.00 0.00 81 1022.9
20260508214828 53 250 0.0 0.0 0.00 0.00 0.00 82 1022.9
20260508214326 53 250 0.0 0.0 0.00 0.00 0.00 83 1022.8
20260508213812 52 250 0.0 0.0 0.00 0.00 0.00 84 1022.7
20260508213300 51 250 0.0 0.0 0.00 0.00 0.00 85 1022.6
20260508212755 50 250 0.0 0.0 0.00 0.00 0.00 82 1022.5
20260508212248 50 259 0.0 0.0 0.00 0.00 0.00 82 1022.4
20260508212004 50 259 0.0 0.0 0.00 0.00 0.00 82 1022.3
20260508211233 50 259 0.0 0.0 0.00 0.00 0.00 82 1022.3
20260508211215 50 259 0.0 0.0 0.00 0.00 0.00 82 1022.2
20260508210217 50 259 0.0 0.0 0.00 0.00 0.00 81 1022.2
20260508205707 50 259 0.0 0.0 0.00 0.00 0.00 81 1022.1
20260508205156 50 259 0.0 0.0 0.00 0.00 0.00 80 1022.0
20260508204653 50 259 0.0 0.9 0.00 0.00 0.00 80 1022.0
20260508204143 50 259 0.0 0.9 0.00 0.00 0.00 79 1021.9
20260508203628 51 246 0.0 0.0 0.00 0.00 0.00 79 1021.9
20260508203039 51 246 0.0 0.0 0.00 0.00 0.00 79 1021.9
20260508202803 51 246 0.0 0.0 0.00 0.00 0.00 79 1021.8
20260508202257 51 246 0.0 0.0 0.00 0.00 0.00 79 1021.7
20260508201522 51 246 0.0 0.0 0.00 0.00 0.00 79 1021.6
20260508200940 52 246 0.0 0.0 0.00 0.00 0.00 79 1021.7
20260508200432 52 246 0.0 0.0 0.00 0.00 0.00 79 1021.6
20260508195927 52 246 0.0 0.0 0.00 0.00 0.00 79 1021.6
20260508195350 52 246 0.0 0.0 0.00 0.00 0.00 80 1021.4
20260508194840 52 246 0.0 0.0 0.00 0.00 0.00 80 1021.3
20260508194322 52 246 0.0 0.0 0.00 0.00 0.00 80 1021.3
20260508193758 53 246 0.0 0.0 0.00 0.00 0.00 80 1021.3
20260508193242 53 246 0.0 0.0 0.00 0.00 0.00 81 1021.1
20260508192736 53 246 0.0 0.0 0.00 0.00 0.00 81 1021.0
20260508192442 53 246 0.0 0.0 0.00 0.00 0.00 81 1020.9
20260508191947 53 246 0.0 0.0 0.00 0.00 0.00 81 1020.8
20260508191202 53 246 0.0 0.0 0.00 0.00 0.00 82 1020.8
20260508190702 53 246 0.0 0.0 0.00 0.00 0.00 82 1020.8
20260508190142 52 246 0.0 0.0 0.00 0.00 0.00 81 1020.8
20260508185633 52 246 0.0 0.0 0.00 0.00 0.00 81 1020.8
20260508185105 52 246 0.0 0.0 0.00 0.00 0.00 81 1020.7
20260508184542 52 246 0.0 0.0 0.00 0.00 0.00 81 1020.7
20260508184040 52 246 0.0 0.0 0.00 0.00 0.00 81 1020.7
20260508183540 52 246 0.0 0.0 0.00 0.00 0.00 81 1020.5
20260508183245 52 246 0.0 0.0 0.00 0.00 0.00 81 1020.5
20260508182508 52 246 0.0 0.0 0.00 0.00 0.00 81 1020.5
20260508182004 52 246 0.0 0.0 0.00 0.00 0.00 81 1020.5
20260508181438 52 246 0.0 0.0 0.00 0.00 0.00 81 1020.4
20260508180936 52 246 0.0 0.0 0.00 0.00 0.00 81 1020.3
20260508180423 52 246 0.0 0.0 0.00 0.00 0.00 81 1020.3
20260508175915 52 246 0.0 0.0 0.00 0.00 0.00 80 1020.3
20260508175412 52 246 0.0 0.0 0.00 0.00 0.00 81 1020.3
20260508174846 52 246 0.0 0.0 0.00 0.00 0.00 80 1020.3
20260508174339 52 246 0.0 0.0 0.00 0.00 0.00 81 1020.3
20260508173833 52 246 0.0 0.0 0.00 0.00 0.00 80 1020.3
20260508173323 52 246 0.0 0.0 0.00 0.00 0.00 81 1020.3
20260508173239 52 246 0.0 0.0 0.00 0.00 0.00 81 1020.3
20260508172244 52 246 0.0 0.0 0.00 0.00 0.00 81 1020.3
20260508171732 52 246 0.0 0.0 0.00 0.00 0.00 81 1020.2
20260508171442 52 246 0.0 0.0 0.00 0.00 0.00 81 1020.2
20260508170705 52 246 0.0 0.0 0.00 0.00 0.00 81 1020.2
20260508170202 52 246 0.0 0.0 0.00 0.00 0.00 82 1020.3
20260508165637 52 246 0.0 0.0 0.00 0.00 0.00 82 1020.2
20260508165136 51 246 0.0 0.0 0.00 0.00 0.00 82 1020.2
20260508164618 51 246 0.0 0.0 0.00 0.00 0.00 82 1020.3
20260508164118 51 246 0.0 0.0 0.00 0.00 0.00 82 1020.3
20260508163615 51 246 0.0 0.0 0.00 0.00 0.00 83 1020.3
20260508163116 51 246 0.0 0.0 0.00 0.00 0.00 83 1020.2
20260508162606 51 246 0.0 0.0 0.00 0.00 0.00 83 1020.2
20260508162106 51 246 0.0 0.0 0.00 0.00 0.00 83 1020.2
20260508161554 50 246 0.0 0.0 0.00 0.00 0.00 83 1020.1
20260508161050 50 246 0.0 0.0 0.00 0.00 0.00 83 1020.1
20260508160545 50 246 0.0 0.0 0.00 0.00 0.00 83 1020.0
20260508160033 50 246 0.0 0.0 0.00 0.00 0.00 83 1020.0
20260508155525 50 246 0.0 0.0 0.00 0.00 0.00 83 1020.0
20260508155225 50 246 0.0 0.0 0.00 0.00 0.00 82 1019.9
20260508154453 50 246 0.0 0.0 0.00 0.00 0.00 82 1020.0
20260508153943 51 246 0.0 0.0 0.00 0.00 0.00 82 1020.0
20260508153443 51 246 0.0 0.0 0.00 0.00 0.00 82 1020.0
20260508152936 51 246 0.0 0.0 0.00 0.00 0.00 82 1020.0
20260508152421 51 246 0.0 0.0 0.00 0.00 0.00 81 1020.1
20260508151856 51 246 0.0 0.0 0.00 0.00 0.00 81 1020.1
20260508151355 51 246 0.0 0.0 0.00 0.00 0.00 80 1020.1
20260508151314 52 246 0.0 0.0 0.00 0.00 0.00 80 1020.1
20260508150329 52 246 0.0 0.0 0.00 0.00 0.00 80 1020.1
20260508145819 52 246 0.0 0.0 0.00 0.00 0.00 80 1020.1
20260508145301 52 246 0.0 0.0 0.00 0.00 0.00 79 1020.1
20260508144731 52 246 0.0 0.0 0.00 0.00 0.00 79 1020.1
20260508144141 52 246 0.0 0.0 0.00 0.00 0.00 78 1020.0
20260508143642 53 246 0.0 0.0 0.00 0.00 0.00 78 1020.1
20260508143131 53 246 0.0 0.0 0.00 0.00 0.00 77 1020.1
20260508142555 53 246 0.0 0.0 0.00 0.00 0.00 77 1020.1
20260508142045 54 246 0.0 0.0 0.00 0.00 0.00 77 1020.1
20260508141535 54 246 0.0 0.0 0.00 0.00 0.00 77 1020.0
20260508141026 54 246 0.0 0.0 0.00 0.00 0.00 77 1020.1
20260508140519 54 246 0.0 0.0 0.00 0.00 0.00 77 1020.0
20260508140019 54 246 0.0 0.0 0.00 0.00 0.00 77 1019.9
20260508135502 54 246 0.0 0.0 0.00 0.00 0.00 77 1019.8
20260508134958 53 246 0.0 0.0 0.00 0.00 0.00 77 1019.9
20260508134447 53 246 0.0 0.0 0.00 0.00 0.00 77 1019.8
20260508133936 53 246 0.0 0.0 0.00 0.00 0.00 78 1019.9
20260508133437 53 246 0.0 0.0 0.00 0.00 0.00 78 1019.9
20260508132935 53 246 0.0 0.0 0.00 0.00 0.00 78 1019.9
20260508132652 53 246 0.0 0.0 0.00 0.00 0.00 77 1019.9
20260508132150 54 246 0.0 0.0 0.00 0.00 0.00 76 1019.8
20260508131403 54 246 0.0 0.0 0.00 0.00 0.00 76 1019.9
20260508130903 54 246 0.0 0.0 0.00 0.00 0.00 76 1019.9
20260508130353 53 246 0.0 0.0 0.00 0.00 0.00 78 1019.9
20260508125847 53 246 0.0 0.0 0.00 0.00 0.00 77 1019.9
20260508125606 53 246 0.0 0.0 0.00 0.00 0.00 76 1019.9
20260508124830 54 246 0.0 0.0 0.00 0.00 0.00 76 1019.9
20260508124331 54 246 0.0 0.0 0.00 0.00 0.00 75 1019.9
20260508123831 54 246 0.0 0.0 0.00 0.00 0.00 75 1019.8
20260508123554 54 246 0.0 0.0 0.00 0.00 0.00 75 1019.7
20260508122819 54 246 0.0 0.0 0.00 0.00 0.00 75 1019.7
20260508122242 54 246 0.0 0.0 0.00 0.00 0.00 75 1019.7
20260508121734 54 246 0.0 0.0 0.00 0.00 0.00 75 1019.7
20260508121234 54 246 0.0 0.0 0.00 0.00 0.00 75 1019.9
20260508120729 54 246 0.0 0.0 0.00 0.00 0.00 75 1019.9
20260508120207 54 246 0.0 0.0 0.00 0.00 0.00 75 1019.8
20260508115645 54 246 0.0 0.0 0.00 0.00 0.00 74 1019.9
20260508115138 54 246 0.0 0.0 0.00 0.00 0.00 74 1019.8
20260508114632 55 246 0.0 0.0 0.00 0.00 0.00 74 1019.9
20260508114108 54 246 0.0 0.0 0.00 0.00 0.00 74 1019.9
20260508113549 54 246 0.0 0.0 0.00 0.00 0.00 74 1019.8
20260508113038 55 246 0.0 0.0 0.00 0.00 0.00 73 1019.9
20260508112533 55 246 0.0 0.0 0.00 0.00 0.00 73 1019.8
20260508112000 55 246 0.0 0.0 0.00 0.00 0.00 73 1019.7
20260508111501 55 246 0.0 0.0 0.00 0.00 0.00 73 1019.7
20260508111001 55 246 0.0 0.0 0.00 0.00 0.00 73 1019.6
20260508110438 55 246 0.0 0.0 0.00 0.00 0.00 73 1019.6
20260508105925 55 246 0.0 0.0 0.00 0.00 0.00 72 1019.5
20260508105417 55 246 0.0 0.0 0.00 0.00 0.00 73 1019.3
20260508105140 55 246 0.0 0.0 0.00 0.00 0.00 73 1019.4
20260508104357 55 246 0.0 0.0 0.00 0.00 0.00 73 1019.4
20260508103845 55 246 0.0 0.0 0.00 0.00 0.00 72 1019.4
20260508103608 55 246 0.0 0.0 0.00 0.00 0.00 72 1019.4
20260508103105 55 246 0.0 0.0 0.00 0.00 0.00 71 1019.3
20260508102336 56 246 0.0 0.0 0.00 0.00 0.00 71 1019.3
20260508101832 56 246 0.0 0.0 0.00 0.00 0.00 71 1019.2
20260508101327 56 246 0.0 0.0 0.00 0.00 0.00 70 1019.1
20260508100823 56 246 0.0 0.0 0.00 0.00 0.00 70 1019.1
20260508100517 56 246 0.0 0.0 0.00 0.00 0.00 69 1019.0
20260508095801 57 246 0.0 0.0 0.00 0.00 0.00 69 1019.0
20260508095240 57 246 0.0 0.0 0.00 0.00 0.00 68 1019.0
20260508094738 57 246 0.0 0.0 0.00 0.00 0.00 68 1018.9
20260508094228 57 246 0.0 0.0 0.00 0.00 0.00 68 1018.8
20260508093718 57 246 0.0 0.0 0.00 0.00 0.00 68 1018.8
20260508093218 57 246 0.0 0.0 0.00 0.00 0.00 68 1018.7
20260508092642 58 246 0.0 0.0 0.00 0.00 0.00 67 1018.7
20260508092143 58 246 0.0 0.0 0.00 0.00 0.00 66 1018.7
20260508091642 58 246 0.0 0.0 0.00 0.00 0.00 66 1018.7
20260508091132 58 246 0.0 0.9 0.00 0.00 0.00 66 1018.7
20260508090628 58 246 0.0 0.9 0.00 0.00 0.00 66 1018.6